Year,Month,Day,Hour,Minute,Value (Times are PST for temperature in C)
2020,06,01,00,00,8.60
2020,06,01,00,01,8.60
2020,06,01,00,02,8.60
2020,06,01,00,03,8.60
2020,06,01,00,04,8.60
2020,06,01,00,05,8.60
2020,06,01,00,06,8.50
2020,06,01,00,07,8.40
2020,06,01,00,08,8.40
2020,06,01,00,09,8.40
2020,06,01,00,10,8.40
2020,06,01,00,11,8.30
2020,06,01,00,12,8.30
2020,06,01,00,13,8.30
2020,06,01,00,14,8.30
2020,06,01,00,15,8.30
2020,06,01,00,16,8.30
2020,06,01,00,17,8.30
2020,06,01,00,18,8.30
2020,06,01,00,19,8.20
2020,06,01,00,20,8.20
2020,06,01,00,21,8.20
2020,06,01,00,22,8.20
2020,06,01,00,23,8.20
2020,06,01,00,24,8.20
2020,06,01,00,25,8.20
2020,06,01,00,26,8.20
2020,06,01,00,27,8.10
2020,06,01,00,28,8.10
2020,06,01,00,29,8.10
2020,06,01,00,30,8.10
2020,06,01,00,31,8.10
2020,06,01,00,32,8.10
2020,06,01,00,33,8.10
2020,06,01,00,34,8.10
2020,06,01,00,35,8.10
2020,06,01,00,36,8.10
2020,06,01,00,37,8.10
2020,06,01,00,38,8.10
2020,06,01,00,39,8.10
2020,06,01,00,40,8.10
2020,06,01,00,41,8.10
2020,06,01,00,42,8.10
2020,06,01,00,43,8.10
2020,06,01,00,44,8.10
2020,06,01,00,45,8.10
2020,06,01,00,46,8.10
2020,06,01,00,47,8.10
2020,06,01,00,48,8.10
2020,06,01,00,49,8.10
2020,06,01,00,50,8.10
2020,06,01,00,51,8.10
2020,06,01,00,52,8.10
2020,06,01,00,53,8.10
2020,06,01,00,54,8.10
2020,06,01,00,55,8.10
2020,06,01,00,56,8.10
2020,06,01,00,57,8.10
2020,06,01,00,58,8.10
2020,06,01,00,59,8.00
2020,06,01,01,00,8.00
2020,06,01,01,01,8.00
2020,06,01,01,02,8.00
2020,06,01,01,03,7.90
2020,06,01,01,04,7.90
2020,06,01,01,05,7.90
2020,06,01,01,06,7.90
2020,06,01,01,07,7.90
2020,06,01,01,08,7.90
2020,06,01,01,09,7.90
2020,06,01,01,10,7.80
2020,06,01,01,11,7.80
2020,06,01,01,12,7.80
2020,06,01,01,13,7.80
2020,06,01,01,14,7.80
2020,06,01,01,15,7.80
2020,06,01,01,16,7.80
2020,06,01,01,17,7.80
2020,06,01,01,18,7.80
2020,06,01,01,19,7.80
2020,06,01,01,20,7.80
2020,06,01,01,21,7.70
2020,06,01,01,22,7.70
2020,06,01,01,23,7.70
2020,06,01,01,24,7.70
2020,06,01,01,25,7.70
2020,06,01,01,26,7.70
2020,06,01,01,27,7.70
2020,06,01,01,28,7.70
2020,06,01,01,29,7.70
2020,06,01,01,30,7.70
2020,06,01,01,31,7.70
2020,06,01,01,32,7.60
2020,06,01,01,33,7.60
2020,06,01,01,34,7.60
2020,06,01,01,35,7.60
2020,06,01,01,36,7.60
2020,06,01,01,37,7.60
2020,06,01,01,38,7.60
2020,06,01,01,39,7.50
2020,06,01,01,40,7.50
2020,06,01,01,41,7.50
2020,06,01,01,42,7.50
2020,06,01,01,43,7.50
2020,06,01,01,44,7.50
2020,06,01,01,45,7.40
2020,06,01,01,46,7.40
2020,06,01,01,47,7.40
2020,06,01,01,48,7.40
2020,06,01,01,49,7.40
2020,06,01,01,50,7.40
2020,06,01,01,51,7.40
2020,06,01,01,52,7.40
2020,06,01,01,53,7.30
2020,06,01,01,54,7.30
2020,06,01,01,55,7.30
2020,06,01,01,56,7.30
2020,06,01,01,57,7.30
2020,06,01,01,58,7.30
2020,06,01,01,59,7.30
2020,06,01,02,00,7.20
2020,06,01,02,01,7.20
2020,06,01,02,02,7.20
2020,06,01,02,03,7.20
2020,06,01,02,04,7.20
2020,06,01,02,05,7.20
2020,06,01,02,06,7.20
2020,06,01,02,07,7.20
2020,06,01,02,08,7.20
2020,06,01,02,09,7.20
2020,06,01,02,10,7.20
2020,06,01,02,11,7.20
2020,06,01,02,12,7.20
2020,06,01,02,13,7.20
2020,06,01,02,14,7.20
2020,06,01,02,15,7.10
2020,06,01,02,16,7.20
2020,06,01,02,17,7.20
2020,06,01,02,18,7.20
2020,06,01,02,19,7.20
2020,06,01,02,20,7.20
2020,06,01,02,21,7.20
2020,06,01,02,22,7.20
2020,06,01,02,23,7.20
2020,06,01,02,24,7.20
2020,06,01,02,25,7.20
2020,06,01,02,26,7.20
2020,06,01,02,27,7.20
2020,06,01,02,28,7.20
2020,06,01,02,29,7.20
2020,06,01,02,30,7.20
2020,06,01,02,31,7.20
2020,06,01,02,32,7.20
2020,06,01,02,33,7.20
2020,06,01,02,34,7.20
2020,06,01,02,35,7.20
2020,06,01,02,36,7.20
2020,06,01,02,37,7.20
2020,06,01,02,38,7.20
2020,06,01,02,39,7.20
2020,06,01,02,40,7.10
2020,06,01,02,41,7.20
2020,06,01,02,42,7.10
2020,06,01,02,43,7.10
2020,06,01,02,44,7.10
2020,06,01,02,45,7.10
2020,06,01,02,46,7.10
2020,06,01,02,47,7.10
2020,06,01,02,48,7.10
2020,06,01,02,49,7.10
2020,06,01,02,50,7.10
2020,06,01,02,51,7.20
2020,06,01,02,52,7.20
2020,06,01,02,53,7.20
2020,06,01,02,54,7.20
2020,06,01,02,55,7.20
2020,06,01,02,56,7.20
2020,06,01,02,57,7.20
2020,06,01,02,58,7.20
2020,06,01,02,59,7.20
2020,06,01,03,00,7.20
2020,06,01,03,01,7.20
2020,06,01,03,02,7.20
2020,06,01,03,03,7.20
2020,06,01,03,04,7.10
2020,06,01,03,05,7.10
2020,06,01,03,06,7.10
2020,06,01,03,07,7.10
2020,06,01,03,08,7.10
2020,06,01,03,09,7.10
2020,06,01,03,10,7.10
2020,06,01,03,11,7.10
2020,06,01,03,12,7.00
2020,06,01,03,13,7.00
2020,06,01,03,14,7.00
2020,06,01,03,15,7.00
2020,06,01,03,16,7.00
2020,06,01,03,17,6.90
2020,06,01,03,18,6.90
2020,06,01,03,19,6.90
2020,06,01,03,20,6.90
2020,06,01,03,21,6.90
2020,06,01,03,22,6.90
2020,06,01,03,23,6.90
2020,06,01,03,24,6.90
2020,06,01,03,25,6.80
2020,06,01,03,26,6.80
2020,06,01,03,27,6.80
2020,06,01,03,28,6.80
2020,06,01,03,29,6.80
2020,06,01,03,30,6.80
2020,06,01,03,31,6.80
2020,06,01,03,32,6.80
2020,06,01,03,33,6.80
2020,06,01,03,34,6.80
2020,06,01,03,35,6.70
2020,06,01,03,36,6.70
2020,06,01,03,37,6.70
2020,06,01,03,38,6.70
2020,06,01,03,39,6.70
2020,06,01,03,40,6.70
2020,06,01,03,41,6.70
2020,06,01,03,42,6.70
2020,06,01,03,43,6.70
2020,06,01,03,44,6.70
2020,06,01,03,45,6.60
2020,06,01,03,46,6.60
2020,06,01,03,47,6.60
2020,06,01,03,48,6.60
2020,06,01,03,49,6.60
2020,06,01,03,50,6.60
2020,06,01,03,51,6.60
2020,06,01,03,52,6.60
2020,06,01,03,53,6.60
2020,06,01,03,54,6.60
2020,06,01,03,55,6.60
2020,06,01,03,56,6.60
2020,06,01,03,57,6.60
2020,06,01,03,58,6.60
2020,06,01,03,59,6.60
2020,06,01,04,00,6.60
2020,06,01,04,01,6.60
2020,06,01,04,02,6.60
2020,06,01,04,03,6.50
2020,06,01,04,04,6.50
2020,06,01,04,05,6.60
2020,06,01,04,06,6.50
2020,06,01,04,07,6.50
2020,06,01,04,08,6.50
2020,06,01,04,09,6.50
2020,06,01,04,10,6.50
2020,06,01,04,11,6.50
2020,06,01,04,12,6.50
2020,06,01,04,13,6.50
2020,06,01,04,14,6.50
2020,06,01,04,15,6.50
2020,06,01,04,16,6.50
2020,06,01,04,17,6.50
2020,06,01,04,18,6.50
2020,06,01,04,19,6.50
2020,06,01,04,20,6.50
2020,06,01,04,21,6.50
2020,06,01,04,22,6.50
2020,06,01,04,23,6.50
2020,06,01,04,24,6.50
2020,06,01,04,25,6.50
2020,06,01,04,26,6.50
2020,06,01,04,27,6.50
2020,06,01,04,28,6.50
2020,06,01,04,29,6.50
2020,06,01,04,30,6.50
2020,06,01,04,31,6.40
2020,06,01,04,32,6.40
2020,06,01,04,33,6.40
2020,06,01,04,34,6.40
2020,06,01,04,35,6.40
2020,06,01,04,36,6.40
2020,06,01,04,37,6.40
2020,06,01,04,38,6.40
2020,06,01,04,39,6.40
2020,06,01,04,40,6.40
2020,06,01,04,41,6.40
2020,06,01,04,42,6.40
2020,06,01,04,43,6.40
2020,06,01,04,44,6.40
2020,06,01,04,45,6.40
2020,06,01,04,46,6.40
2020,06,01,04,47,6.40
2020,06,01,04,48,6.40
2020,06,01,04,49,6.40
2020,06,01,04,50,6.40
2020,06,01,04,51,6.40
2020,06,01,04,52,6.30
2020,06,01,04,53,6.30
2020,06,01,04,54,6.30
2020,06,01,04,55,6.30
2020,06,01,04,56,6.30
2020,06,01,04,57,6.30
2020,06,01,04,58,6.30
2020,06,01,04,59,6.30
2020,06,01,05,00,6.30
2020,06,01,05,01,6.30
2020,06,01,05,02,6.30
2020,06,01,05,03,6.20
2020,06,01,05,04,6.20
2020,06,01,05,05,6.20
2020,06,01,05,06,6.20
2020,06,01,05,07,6.20
2020,06,01,05,08,6.20
2020,06,01,05,09,6.20
2020,06,01,05,10,6.20
2020,06,01,05,11,6.20
2020,06,01,05,12,6.20
2020,06,01,05,13,6.10
2020,06,01,05,14,6.10
2020,06,01,05,15,6.10
2020,06,01,05,16,6.10
2020,06,01,05,17,6.10
2020,06,01,05,18,6.10
2020,06,01,05,19,6.10
2020,06,01,05,20,6.10
2020,06,01,05,21,6.00
2020,06,01,05,22,6.00
2020,06,01,05,23,6.00
2020,06,01,05,24,6.00
2020,06,01,05,25,6.00
2020,06,01,05,26,5.90
2020,06,01,05,27,5.90
2020,06,01,05,28,5.90
2020,06,01,05,29,5.90
2020,06,01,05,30,5.90
2020,06,01,05,31,5.90
2020,06,01,05,32,5.90
2020,06,01,05,33,5.90
2020,06,01,05,34,5.90
2020,06,01,05,35,5.90
2020,06,01,05,36,5.90
2020,06,01,05,37,5.90
2020,06,01,05,38,5.90
2020,06,01,05,39,5.90
2020,06,01,05,40,5.90
2020,06,01,05,41,5.90
2020,06,01,05,42,5.90
2020,06,01,05,43,5.90
2020,06,01,05,44,5.90
2020,06,01,05,45,5.90
2020,06,01,05,46,5.90
2020,06,01,05,47,5.90
2020,06,01,05,48,5.90
2020,06,01,05,49,5.90
2020,06,01,05,50,5.90
2020,06,01,05,51,5.90
2020,06,01,05,52,5.90
2020,06,01,05,53,5.90
2020,06,01,05,54,5.90
2020,06,01,05,55,5.90
2020,06,01,05,56,5.90
2020,06,01,05,57,5.90
2020,06,01,05,58,5.90
2020,06,01,05,59,5.90
2020,06,01,06,00,5.90
2020,06,01,06,01,5.90
2020,06,01,06,02,5.90
2020,06,01,06,03,5.90
2020,06,01,06,04,5.90
2020,06,01,06,05,5.90
2020,06,01,06,06,5.90
2020,06,01,06,07,5.90
2020,06,01,06,08,5.90
2020,06,01,06,09,5.90
2020,06,01,06,10,5.90
2020,06,01,06,11,5.90
2020,06,01,06,12,5.90
2020,06,01,06,13,5.90
2020,06,01,06,14,6.00
2020,06,01,06,15,5.90
2020,06,01,06,16,5.90
2020,06,01,06,17,6.00
2020,06,01,06,18,6.00
2020,06,01,06,19,6.00
2020,06,01,06,20,6.00
2020,06,01,06,21,6.00
2020,06,01,06,22,6.00
2020,06,01,06,23,6.10
2020,06,01,06,24,6.10
2020,06,01,06,25,6.10
2020,06,01,06,26,6.10
2020,06,01,06,27,6.10
2020,06,01,06,28,6.10
2020,06,01,06,29,6.10
2020,06,01,06,30,6.10
2020,06,01,06,31,6.10
2020,06,01,06,32,6.10
2020,06,01,06,33,6.20
2020,06,01,06,34,6.20
2020,06,01,06,35,6.20
2020,06,01,06,36,6.20
2020,06,01,06,37,6.20
2020,06,01,06,38,6.20
2020,06,01,06,39,6.30
2020,06,01,06,40,6.30
2020,06,01,06,41,6.30
2020,06,01,06,42,6.30
2020,06,01,06,43,6.30
2020,06,01,06,44,6.40
2020,06,01,06,45,6.40
2020,06,01,06,46,6.40
2020,06,01,06,47,6.40
2020,06,01,06,48,6.40
2020,06,01,06,49,6.40
2020,06,01,06,50,6.50
2020,06,01,06,51,6.50
2020,06,01,06,52,6.50
2020,06,01,06,53,6.60
2020,06,01,06,54,6.60
2020,06,01,06,55,6.60
2020,06,01,06,56,6.60
2020,06,01,06,57,6.70
2020,06,01,06,58,6.70
2020,06,01,06,59,6.70
2020,06,01,07,00,6.80
2020,06,01,07,01,6.80
2020,06,01,07,02,6.90
2020,06,01,07,03,6.90
2020,06,01,07,04,7.00
2020,06,01,07,05,7.10
2020,06,01,07,06,7.10
2020,06,01,07,07,7.20
2020,06,01,07,08,7.30
2020,06,01,07,09,7.30
2020,06,01,07,10,7.30
2020,06,01,07,11,7.30
2020,06,01,07,12,7.40
2020,06,01,07,13,7.40
2020,06,01,07,14,7.50
2020,06,01,07,15,7.50
2020,06,01,07,16,7.60
2020,06,01,07,17,7.60
2020,06,01,07,18,7.70
2020,06,01,07,19,7.70
2020,06,01,07,20,7.70
2020,06,01,07,21,7.70
2020,06,01,07,22,7.80
2020,06,01,07,23,7.80
2020,06,01,07,24,7.80
2020,06,01,07,25,7.90
2020,06,01,07,26,7.90
2020,06,01,07,27,7.90
2020,06,01,07,28,7.90
2020,06,01,07,29,8.00
2020,06,01,07,30,8.00
2020,06,01,07,31,8.10
2020,06,01,07,32,8.10
2020,06,01,07,33,8.20
2020,06,01,07,34,8.20
2020,06,01,07,35,8.20
2020,06,01,07,36,8.30
2020,06,01,07,37,8.30
2020,06,01,07,38,8.40
2020,06,01,07,39,8.40
2020,06,01,07,40,8.50
2020,06,01,07,41,8.50
2020,06,01,07,42,8.60
2020,06,01,07,43,8.70
2020,06,01,07,44,8.70
2020,06,01,07,45,8.80
2020,06,01,07,46,8.90
2020,06,01,07,47,8.90
2020,06,01,07,48,9.00
2020,06,01,07,49,9.10
2020,06,01,07,50,9.20
2020,06,01,07,51,9.30
2020,06,01,07,52,9.40
2020,06,01,07,53,9.50
2020,06,01,07,54,9.60
2020,06,01,07,55,9.70
2020,06,01,07,56,9.90
2020,06,01,07,57,10.00
2020,06,01,07,58,10.10
2020,06,01,07,59,10.10
2020,06,01,08,00,10.20
2020,06,01,08,01,10.30
2020,06,01,08,02,10.40
2020,06,01,08,03,10.50
2020,06,01,08,04,10.60
2020,06,01,08,05,10.70
2020,06,01,08,06,10.80
2020,06,01,08,07,10.90
2020,06,01,08,08,11.00
2020,06,01,08,09,11.10
2020,06,01,08,10,11.20
2020,06,01,08,11,11.20
2020,06,01,08,12,11.30
2020,06,01,08,13,11.40
2020,06,01,08,14,11.50
2020,06,01,08,15,11.60
2020,06,01,08,16,11.70
2020,06,01,08,17,11.80
2020,06,01,08,18,12.00
2020,06,01,08,19,12.10
2020,06,01,08,20,12.20
2020,06,01,08,21,12.30
2020,06,01,08,22,12.40
2020,06,01,08,23,12.60
2020,06,01,08,24,12.70
2020,06,01,08,25,12.80
2020,06,01,08,26,12.90
2020,06,01,08,27,12.90
2020,06,01,08,28,13.00
2020,06,01,08,29,13.10
2020,06,01,08,30,13.20
2020,06,01,08,31,13.30
2020,06,01,08,32,13.30
2020,06,01,08,33,13.50
2020,06,01,08,34,13.60
2020,06,01,08,35,13.70
2020,06,01,08,36,13.80
2020,06,01,08,37,13.90
2020,06,01,08,38,14.00
2020,06,01,08,39,14.00
2020,06,01,08,40,14.10
2020,06,01,08,41,14.20
2020,06,01,08,42,14.30
2020,06,01,08,43,14.40
2020,06,01,08,44,14.50
2020,06,01,08,45,14.60
2020,06,01,08,46,14.70
2020,06,01,08,47,14.80
2020,06,01,08,48,14.90
2020,06,01,08,49,15.00
2020,06,01,08,50,15.10
2020,06,01,08,51,15.20
2020,06,01,08,52,15.30
2020,06,01,08,53,15.40
2020,06,01,08,54,15.40
2020,06,01,08,55,15.50
2020,06,01,08,56,15.50
2020,06,01,08,57,15.60
2020,06,01,08,58,15.60
2020,06,01,08,59,15.60
2020,06,01,09,00,15.60
2020,06,01,09,01,15.70
2020,06,01,09,02,15.70
2020,06,01,09,03,15.80
2020,06,01,09,04,15.80
2020,06,01,09,05,15.80
2020,06,01,09,06,15.90
2020,06,01,09,07,15.90
2020,06,01,09,08,15.90
2020,06,01,09,09,15.90
2020,06,01,09,10,15.90
2020,06,01,09,11,15.90
2020,06,01,09,12,15.90
2020,06,01,09,13,15.90
2020,06,01,09,14,16.00
2020,06,01,09,15,16.00
2020,06,01,09,16,16.00
2020,06,01,09,17,16.10
2020,06,01,09,18,16.20
2020,06,01,09,19,16.20
2020,06,01,09,20,16.20
2020,06,01,09,21,16.30
2020,06,01,09,22,16.30
2020,06,01,09,23,16.30
2020,06,01,09,24,16.30
2020,06,01,09,25,16.40
2020,06,01,09,26,16.50
2020,06,01,09,27,16.50
2020,06,01,09,28,16.50
2020,06,01,09,29,16.60
2020,06,01,09,30,16.60
2020,06,01,09,31,16.70
2020,06,01,09,32,16.80
2020,06,01,09,33,16.90
2020,06,01,09,34,16.90
2020,06,01,09,35,16.90
2020,06,01,09,36,17.00
2020,06,01,09,37,17.10
2020,06,01,09,38,17.10
2020,06,01,09,39,17.10
2020,06,01,09,40,17.20
2020,06,01,09,41,17.40
2020,06,01,09,42,17.60
2020,06,01,09,43,17.80
2020,06,01,09,44,17.90
2020,06,01,09,45,18.00
2020,06,01,09,46,18.20
2020,06,01,09,47,18.20
2020,06,01,09,48,18.30
2020,06,01,09,49,18.30
2020,06,01,09,50,18.30
2020,06,01,09,51,18.20
2020,06,01,09,52,18.20
2020,06,01,09,53,18.30
2020,06,01,09,54,18.40
2020,06,01,09,55,18.40
2020,06,01,09,56,18.50
2020,06,01,09,57,18.40
2020,06,01,09,58,18.40
2020,06,01,09,59,18.30
2020,06,01,10,00,18.30
2020,06,01,10,01,18.20
2020,06,01,10,02,18.10
2020,06,01,10,03,18.10
2020,06,01,10,04,18.10
2020,06,01,10,05,18.10
2020,06,01,10,06,18.10
2020,06,01,10,07,18.10
2020,06,01,10,08,18.10
2020,06,01,10,09,18.00
2020,06,01,10,10,17.80
2020,06,01,10,11,17.70
2020,06,01,10,12,17.50
2020,06,01,10,13,17.40
2020,06,01,10,14,17.40
2020,06,01,10,15,17.30
2020,06,01,10,16,17.20
2020,06,01,10,17,17.10
2020,06,01,10,18,17.10
2020,06,01,10,19,17.00
2020,06,01,10,20,16.90
2020,06,01,10,21,16.80
2020,06,01,10,22,16.70
2020,06,01,10,23,16.60
2020,06,01,10,24,16.50
2020,06,01,10,25,16.40
2020,06,01,10,26,16.30
2020,06,01,10,27,16.30
2020,06,01,10,28,16.20
2020,06,01,10,29,16.00
2020,06,01,10,30,15.90
2020,06,01,10,31,15.80
2020,06,01,10,32,15.70
2020,06,01,10,33,15.60
2020,06,01,10,34,15.50
2020,06,01,10,35,15.40
2020,06,01,10,36,15.40
2020,06,01,10,37,15.30
2020,06,01,10,38,15.30
2020,06,01,10,39,15.30
2020,06,01,10,40,15.20
2020,06,01,10,41,15.20
2020,06,01,10,42,15.20
2020,06,01,10,43,15.20
2020,06,01,10,44,15.20
2020,06,01,10,45,15.20
2020,06,01,10,46,15.20
2020,06,01,10,47,15.20
2020,06,01,10,48,15.20
2020,06,01,10,49,15.20
2020,06,01,10,50,15.30
2020,06,01,10,51,15.30
2020,06,01,10,52,15.30
2020,06,01,10,53,15.30
2020,06,01,10,54,15.30
2020,06,01,10,55,15.30
2020,06,01,10,56,15.40
2020,06,01,10,57,15.40
2020,06,01,10,58,15.40
2020,06,01,10,59,15.40
2020,06,01,11,00,15.40
2020,06,01,11,01,15.40
2020,06,01,11,02,15.40
2020,06,01,11,03,15.40
2020,06,01,11,04,15.40
2020,06,01,11,05,15.40
2020,06,01,11,06,15.50
2020,06,01,11,07,15.50
2020,06,01,11,08,15.50
2020,06,01,11,09,15.50
2020,06,01,11,10,15.50
2020,06,01,11,11,15.50
2020,06,01,11,12,15.50
2020,06,01,11,13,15.50
2020,06,01,11,14,15.50
2020,06,01,11,15,15.50
2020,06,01,11,16,15.50
2020,06,01,11,17,15.50
2020,06,01,11,18,15.50
2020,06,01,11,19,15.50
2020,06,01,11,20,15.40
2020,06,01,11,21,15.40
2020,06,01,11,22,15.40
2020,06,01,11,23,15.40
2020,06,01,11,24,15.40
2020,06,01,11,25,15.40
2020,06,01,11,26,15.40
2020,06,01,11,27,15.40
2020,06,01,11,28,15.50
2020,06,01,11,29,15.50
2020,06,01,11,30,15.60
2020,06,01,11,31,15.60
2020,06,01,11,32,15.70
2020,06,01,11,33,15.80
2020,06,01,11,34,15.80
2020,06,01,11,35,15.90
2020,06,01,11,36,16.00
2020,06,01,11,37,16.10
2020,06,01,11,38,16.30
2020,06,01,11,39,16.40
2020,06,01,11,40,16.40
2020,06,01,11,41,16.40
2020,06,01,11,42,16.40
2020,06,01,11,43,16.50
2020,06,01,11,44,16.60
2020,06,01,11,45,16.70
2020,06,01,11,46,16.80
2020,06,01,11,47,16.80
2020,06,01,11,48,16.90
2020,06,01,11,49,17.00
2020,06,01,11,50,17.10
2020,06,01,11,51,17.10
2020,06,01,11,52,17.20
2020,06,01,11,53,17.10
2020,06,01,11,54,17.10
2020,06,01,11,55,17.10
2020,06,01,11,56,17.10
2020,06,01,11,57,17.10
2020,06,01,11,58,17.10
2020,06,01,11,59,17.10
2020,06,01,12,00,17.00
2020,06,01,12,01,17.00
2020,06,01,12,02,17.00
2020,06,01,12,03,17.00
2020,06,01,12,04,17.00
2020,06,01,12,05,17.00
2020,06,01,12,06,17.00
2020,06,01,12,07,17.00
2020,06,01,12,08,16.90
2020,06,01,12,09,16.70
2020,06,01,12,10,16.70
2020,06,01,12,11,16.60
2020,06,01,12,12,16.60
2020,06,01,12,13,16.50
2020,06,01,12,14,16.50
2020,06,01,12,15,16.50
2020,06,01,12,16,16.50
2020,06,01,12,17,16.50
2020,06,01,12,18,16.50
2020,06,01,12,19,16.50
2020,06,01,12,20,16.50
2020,06,01,12,21,16.50
2020,06,01,12,22,16.60
2020,06,01,12,23,16.60
2020,06,01,12,24,16.50
2020,06,01,12,25,16.50
2020,06,01,12,26,16.50
2020,06,01,12,27,16.40
2020,06,01,12,28,16.40
2020,06,01,12,29,16.40
2020,06,01,12,30,16.40
2020,06,01,12,31,16.40
2020,06,01,12,32,16.30
2020,06,01,12,33,16.30
2020,06,01,12,34,16.30
2020,06,01,12,35,16.30
2020,06,01,12,36,16.20
2020,06,01,12,37,16.20
2020,06,01,12,38,16.20
2020,06,01,12,39,16.10
2020,06,01,12,40,16.10
2020,06,01,12,41,16.10
2020,06,01,12,42,16.10
2020,06,01,12,43,16.10
2020,06,01,12,44,16.10
2020,06,01,12,45,16.10
2020,06,01,12,46,16.10
2020,06,01,12,47,16.10
2020,06,01,12,48,16.10
2020,06,01,12,49,16.10
2020,06,01,12,50,16.10
2020,06,01,12,51,16.10
2020,06,01,12,52,16.10
2020,06,01,12,53,16.10
2020,06,01,12,54,16.20
2020,06,01,12,55,16.10
2020,06,01,12,56,16.10
2020,06,01,12,57,16.00
2020,06,01,12,58,16.00
2020,06,01,12,59,16.00
2020,06,01,13,00,16.00
2020,06,01,13,01,16.00
2020,06,01,13,02,16.00
2020,06,01,13,03,15.90
2020,06,01,13,04,15.90
2020,06,01,13,05,15.90
2020,06,01,13,06,15.90
2020,06,01,13,07,15.90
2020,06,01,13,08,15.90
2020,06,01,13,09,15.90
2020,06,01,13,10,15.90
2020,06,01,13,11,15.80
2020,06,01,13,12,15.80
2020,06,01,13,13,15.80
2020,06,01,13,14,15.80
2020,06,01,13,15,15.90
2020,06,01,13,16,15.90
2020,06,01,13,17,15.90
2020,06,01,13,18,16.00
2020,06,01,13,19,16.00
2020,06,01,13,20,16.10
2020,06,01,13,21,16.20
2020,06,01,13,22,16.20
2020,06,01,13,23,16.20
2020,06,01,13,24,16.20
2020,06,01,13,25,16.20
2020,06,01,13,26,16.20
2020,06,01,13,27,16.20
2020,06,01,13,28,16.20
2020,06,01,13,29,16.30
2020,06,01,13,30,16.30
2020,06,01,13,31,16.30
2020,06,01,13,32,16.30
2020,06,01,13,33,16.40
2020,06,01,13,34,16.40
2020,06,01,13,35,16.40
2020,06,01,13,36,16.50
2020,06,01,13,37,16.50
2020,06,01,13,38,16.60
2020,06,01,13,39,16.60
2020,06,01,13,40,16.70
2020,06,01,13,41,16.80
2020,06,01,13,42,16.80
2020,06,01,13,43,16.90
2020,06,01,13,44,17.10
2020,06,01,13,45,17.20
2020,06,01,13,46,17.30
2020,06,01,13,47,17.40
2020,06,01,13,48,17.50
2020,06,01,13,49,17.60
2020,06,01,13,50,17.70
2020,06,01,13,51,17.80
2020,06,01,13,52,17.90
2020,06,01,13,53,18.00
2020,06,01,13,54,18.10
2020,06,01,13,55,18.10
2020,06,01,13,56,18.20
2020,06,01,13,57,18.30
2020,06,01,13,58,18.30
2020,06,01,13,59,18.40
2020,06,01,14,00,18.30
2020,06,01,14,01,18.30
2020,06,01,14,02,18.30
2020,06,01,14,03,18.30
2020,06,01,14,04,18.40
2020,06,01,14,05,18.50
2020,06,01,14,06,18.50
2020,06,01,14,07,18.60
2020,06,01,14,08,18.70
2020,06,01,14,09,18.80
2020,06,01,14,10,18.90
2020,06,01,14,11,19.00
2020,06,01,14,12,19.10
2020,06,01,14,13,19.20
2020,06,01,14,14,19.20
2020,06,01,14,15,19.20
2020,06,01,14,16,19.20
2020,06,01,14,17,19.10
2020,06,01,14,18,19.00
2020,06,01,14,19,18.90
2020,06,01,14,20,18.90
2020,06,01,14,21,18.80
2020,06,01,14,22,18.80
2020,06,01,14,23,18.80
2020,06,01,14,24,18.80
2020,06,01,14,25,18.80
2020,06,01,14,26,18.80
2020,06,01,14,27,18.70
2020,06,01,14,28,18.70
2020,06,01,14,29,18.70
2020,06,01,14,30,18.70
2020,06,01,14,31,18.70
2020,06,01,14,32,18.80
2020,06,01,14,33,18.90
2020,06,01,14,34,19.00
2020,06,01,14,35,19.10
2020,06,01,14,36,19.10
2020,06,01,14,37,19.10
2020,06,01,14,38,19.10
2020,06,01,14,39,19.10
2020,06,01,14,40,19.10
2020,06,01,14,41,19.10
2020,06,01,14,42,19.10
2020,06,01,14,43,19.10
2020,06,01,14,44,19.20
2020,06,01,14,45,19.20
2020,06,01,14,46,19.20
2020,06,01,14,47,19.20
2020,06,01,14,48,19.20
2020,06,01,14,49,19.20
2020,06,01,14,50,19.20
2020,06,01,14,51,19.20
2020,06,01,14,52,19.20
2020,06,01,14,53,19.20
2020,06,01,14,54,19.20
2020,06,01,14,55,19.20
2020,06,01,14,56,19.20
2020,06,01,14,57,19.30
2020,06,01,14,58,19.30
2020,06,01,14,59,19.30
2020,06,01,15,00,19.30
2020,06,01,15,01,19.20
2020,06,01,15,02,19.10
2020,06,01,15,03,19.10
2020,06,01,15,04,19.10
2020,06,01,15,05,19.10
2020,06,01,15,06,19.10
2020,06,01,15,07,19.10
2020,06,01,15,08,19.10
2020,06,01,15,09,19.10
2020,06,01,15,10,19.10
2020,06,01,15,11,19.00
2020,06,01,15,12,19.00
2020,06,01,15,13,18.90
2020,06,01,15,14,18.90
2020,06,01,15,15,18.90
2020,06,01,15,16,18.90
2020,06,01,15,17,18.90
2020,06,01,15,18,18.90
2020,06,01,15,19,18.90
2020,06,01,15,20,18.90
2020,06,01,15,21,18.90
2020,06,01,15,22,19.00
2020,06,01,15,23,19.00
2020,06,01,15,24,19.00
2020,06,01,15,25,19.10
2020,06,01,15,26,19.10
2020,06,01,15,27,19.10
2020,06,01,15,28,19.10
2020,06,01,15,29,19.10
2020,06,01,15,30,19.10
2020,06,01,15,31,19.10
2020,06,01,15,32,19.00
2020,06,01,15,33,18.90
2020,06,01,15,34,18.90
2020,06,01,15,35,18.80
2020,06,01,15,36,18.80
2020,06,01,15,37,18.80
2020,06,01,15,38,18.80
2020,06,01,15,39,18.80
2020,06,01,15,40,18.80
2020,06,01,15,41,18.80
2020,06,01,15,42,18.80
2020,06,01,15,43,18.70
2020,06,01,15,44,18.70
2020,06,01,15,45,18.70
2020,06,01,15,46,18.60
2020,06,01,15,47,18.60
2020,06,01,15,48,18.60
2020,06,01,15,49,18.60
2020,06,01,15,50,18.60
2020,06,01,15,51,18.60
2020,06,01,15,52,18.50
2020,06,01,15,53,18.50
2020,06,01,15,54,18.40
2020,06,01,15,55,18.40
2020,06,01,15,56,18.30
2020,06,01,15,57,18.30
2020,06,01,15,58,18.30
2020,06,01,15,59,18.20
2020,06,01,16,00,18.20
2020,06,01,16,01,18.20
2020,06,01,16,02,18.20
2020,06,01,16,03,18.10
2020,06,01,16,04,18.10
2020,06,01,16,05,18.10
2020,06,01,16,06,18.10
2020,06,01,16,07,18.10
2020,06,01,16,08,18.10
2020,06,01,16,09,18.20
2020,06,01,16,10,18.20
2020,06,01,16,11,18.20
2020,06,01,16,12,18.20
2020,06,01,16,13,18.20
2020,06,01,16,14,18.20
2020,06,01,16,15,18.30
2020,06,01,16,16,18.30
2020,06,01,16,17,18.30
2020,06,01,16,18,18.40
2020,06,01,16,19,18.40
2020,06,01,16,20,18.40
2020,06,01,16,21,18.40
2020,06,01,16,22,18.40
2020,06,01,16,23,18.40
2020,06,01,16,24,18.30
2020,06,01,16,25,18.30
2020,06,01,16,26,18.30
2020,06,01,16,27,18.30
2020,06,01,16,28,18.40
2020,06,01,16,29,18.40
2020,06,01,16,30,18.40
2020,06,01,16,31,18.40
2020,06,01,16,32,18.40
2020,06,01,16,33,18.40
2020,06,01,16,34,18.40
2020,06,01,16,35,18.40
2020,06,01,16,36,18.40
2020,06,01,16,37,18.50
2020,06,01,16,38,18.50
2020,06,01,16,39,18.40
2020,06,01,16,40,18.40
2020,06,01,16,41,18.40
2020,06,01,16,42,18.40
2020,06,01,16,43,18.50
2020,06,01,16,44,18.50
2020,06,01,16,45,18.60
2020,06,01,16,46,18.60
2020,06,01,16,47,18.60
2020,06,01,16,48,18.60
2020,06,01,16,49,18.60
2020,06,01,16,50,18.60
2020,06,01,16,51,18.60
2020,06,01,16,52,18.60
2020,06,01,16,53,18.60
2020,06,01,16,54,18.60
2020,06,01,16,55,18.60
2020,06,01,16,56,18.60
2020,06,01,16,57,18.60
2020,06,01,16,58,18.60
2020,06,01,16,59,18.60
2020,06,01,17,00,18.60
2020,06,01,17,01,18.50
2020,06,01,17,02,18.50
2020,06,01,17,03,18.50
2020,06,01,17,04,18.40
2020,06,01,17,05,18.40
2020,06,01,17,06,18.40
2020,06,01,17,07,18.40
2020,06,01,17,08,18.30
2020,06,01,17,09,18.30
2020,06,01,17,10,18.30
2020,06,01,17,11,18.30
2020,06,01,17,12,18.30
2020,06,01,17,13,18.30
2020,06,01,17,14,18.30
2020,06,01,17,15,18.30
2020,06,01,17,16,18.30
2020,06,01,17,17,18.30
2020,06,01,17,18,18.30
2020,06,01,17,19,18.30
2020,06,01,17,20,18.40
2020,06,01,17,21,18.40
2020,06,01,17,22,18.30
2020,06,01,17,23,18.30
2020,06,01,17,24,18.30
2020,06,01,17,25,18.30
2020,06,01,17,26,18.30
2020,06,01,17,27,18.30
2020,06,01,17,28,18.30
2020,06,01,17,29,18.30
2020,06,01,17,30,18.30
2020,06,01,17,31,18.30
2020,06,01,17,32,18.30
2020,06,01,17,33,18.30
2020,06,01,17,34,18.30
2020,06,01,17,35,18.30
2020,06,01,17,36,18.30
2020,06,01,17,37,18.30
2020,06,01,17,38,18.30
2020,06,01,17,39,18.30
2020,06,01,17,40,18.30